Home   Weather   Tehran   Past weeks
Flag for Iran

Past Weather in Tehran, Iran — Yesterday and Last 2 Weeks

Now
82 °F

Clear.


Feels Like: 80 °F
Forecast: 98 / 78 °F
Wind: 7 mph from North

Location: Tehran-Mehrabad

Current Time: Sep 21, 2019 at 1:05:55 am

Latest Report: Sep 21, 2019 at 12:30 am


Visibility: 10 mi

Pressure: 29.98 "Hg (26.23 "Hg at 1179m altitude)

Humidity: 16%

Dew Point: 32 °F

Location of TehranLocation

Past Weather in Tehran — Graph

°F

Tehran Temperature Yesterday

Maximum temperature yesterday: 95 °F (at 3:30 pm)
Minimum temperature yesterday: 73 °F (at 6:30 am)
Average temperature yesterday: 85 °F

High & Low Weather Summary for the Past Weeks

 TemperatureHumidityPressure
High97 °F (Sep 18, 4:00 pm)64% (Sep 9, 7:30 am)30.21 "Hg (Sep 9, 7:30 am)
Low61 °F (Sep 9, 6:30 am)9% (Sep 18, 3:00 pm)29.77 "Hg (Sep 7, 4:30 pm)
Average79 °F28%30.02 "Hg
* Reported Sep 5 11:30 pm — Sep 21 12:00 am, Tehran. Weather by CustomWeather, © 2019

Note: Actual official high and low records may vary slightly from our data, if they occured in-between our weather recording intervals... More about our weather records

Advertising

Tehran Weather History for the Previous 24 Hours

Scroll right to see more
 ConditionsComfort  
Time TempWeatherWind HumidityBarometerVisibility
12:00 am
Sat, Sep 21
82 °FClear.7 mph15%29.98 "Hg10 mi
11:30 pm
Fri, Sep 20
82 °FClear.7 mph15%29.98 "Hg10 mi
11:00 pm82 °FClear.7 mph19%29.98 "Hg10 mi
10:30 pm82 °FClear.5 mph20%29.98 "Hg10 mi
10:00 pm82 °FClear.7 mph25%29.98 "Hg10 mi
9:30 pm82 °FClear.5 mph23%29.98 "Hg10 mi
9:00 pm84 °FClear.7 mph23%29.98 "Hg10 mi
8:30 pm86 °FClear.No wind20%29.98 "Hg10 mi
8:00 pm88 °FClear.No wind17%29.95 "Hg10 mi
7:30 pm90 °FSunny.No wind14%29.95 "Hg10 mi
7:00 pm91 °FSunny.No wind11%29.95 "Hg10 mi
6:30 pm93 °FSunny.7 mph10%29.95 "Hg10 mi
6:00 pm93 °FSunny.7 mph11%29.95 "Hg10 mi
5:30 pm95 °FSunny.7 mph10%29.95 "Hg10 mi
5:00 pm95 °FSunny.5 mph10%29.95 "Hg10 mi
4:30 pm95 °FSunny.7 mph10%29.95 "Hg10 mi
4:00 pm95 °FSunny.9 mph11%29.98 "Hg10 mi
3:30 pm95 °FSunny.9 mph11%29.98 "Hg10 mi
3:00 pm93 °FSunny.7 mph12%29.98 "Hg10 mi
2:30 pm93 °FSunny.5 mph11%30.01 "Hg10 mi
2:00 pm93 °FSunny.7 mph11%30.01 "Hg10 mi
1:30 pm93 °FSunny.12 mph11%30.01 "Hg10 mi
1:00 pm91 °FSunny.9 mph12%30.04 "Hg10 mi
12:30 pm91 °FSunny.9 mph11%30.04 "Hg10 mi
12:00 pm90 °FSunny.7 mph13%30.07 "Hg10 mi
11:30 am90 °FSunny.7 mph11%30.07 "Hg10 mi
11:00 am91 °FSunny.5 mph11%30.07 "Hg10 mi
10:30 am91 °FSunny.No wind10%30.07 "Hg10 mi
10:00 am86 °FSunny.5 mph14%30.07 "Hg10 mi
9:30 am84 °FSunny.7 mph15%30.07 "Hg10 mi
9:00 am82 °FSunny.5 mph16%30.07 "Hg10 mi
8:30 am81 °FSunny.No wind17%30.04 "Hg10 mi
8:00 am77 °FSunny.No wind21%30.04 "Hg10 mi
7:30 am73 °FSunny.5 mph25%30.01 "Hg10 mi
7:00 am73 °FClear.5 mph27%30.01 "Hg10 mi
6:30 am73 °FClear.7 mph29%30.01 "Hg10 mi
6:00 am75 °FClear.No wind27%30.01 "Hg10 mi
5:30 am77 °FClear.5 mph21%30.01 "Hg10 mi
5:00 am75 °FClear.7 mph21%30.01 "Hg10 mi
4:30 am77 °FClear.7 mph17%30.01 "Hg10 mi
4:00 am77 °FClear.5 mph21%30.01 "Hg10 mi
3:30 am77 °FClear.5 mph26%30.01 "Hg10 mi
3:00 am77 °FClear.7 mph24%30.01 "Hg10 mi
2:30 am77 °FClear.7 mph24%30.01 "Hg10 mi
2:00 am75 °FClear.5 mph24%30.01 "Hg10 mi
1:30 am81 °FClear.5 mph17%30.01 "Hg10 mi
1:00 am84 °FClear.9 mph10%30.01 "Hg10 mi
Weather by CustomWeather, © 2019

See weather overview